Weather History for Buffalo, NY

Change the Weather History Date:

Sunday, September 29, 2013

  Actual Average Record
Temperature  
Mean Temperature 63 °F 57 °F  
Max Temperature 75 °F 66 °F 88 °F (1954)
Min Temperature 51 °F 48 °F 33 °F (2000)
Degree Days  
Heating Degree Days 2 9  
Month to date heating degree days 152 127  
Since 1 July heating degree days 168 154  
Cooling Degree Days 0 1  
Month to date cooling degree days 49 54  
Year to date cooling degree days 601 541  
Growing Degree Days 13 (Base 50)    
Moisture  
Dew Point 51 °F    
Average Humidity 66    
Maximum Humidity 83    
Minimum Humidity 49    
Precipitation  
Precipitation 0.00 in 0.14 in 1.37 in (1997)
Month to date precipitation 3.53 3.76  
Year to date precipitation 31.16 28.92  
Snow  
Snow 0.00 in 0.00 in 0.00 in ()
Month to date snowfall 0.0 0.0  
Since 1 July snowfall 0.0 0.0  
Since 1 September snowfall 0.0 0.0  
Snow Depth 0.00 in    
Sea Level Pressure  
Sea Level Pressure 30.06 in    
Wind  
Wind Speed 6 mph (South)    
Max Wind Speed 15 mph    
Max Gust Speed 17 mph    
Visibility 10 miles    
Events      
T = Trace of Precipitation, MM = Missing Value Source: NWS Daily Summary

Daily Weather History Graph

Daily Weather History Graph

Search for Another Location

Airport:

Trip Planner

Search our weather history database for the weather conditions in past years. The results will help you decide how hot, cold, wet, or windy it might be!

Date:

Astronomy

Sep. 29, 2013 Rise Set
Actual Time 7:10 AM EDT 6:59 PM EDT
Civil Twilight 6:41 AM EDT 7:27 PM EDT
Nautical Twilight 6:09 AM EDT 8:00 PM EDT
Astronomical Twilight 5:35 AM EDT 8:33 PM EDT
Moon 1:43 AM EDT (9/29) 4:00 PM EDT (9/29)
Length of Visible Light 12h 45m
Length of Day
11h 49m
Waning Crescent, 27% of the Moon is Illuminated
Sep 29
Waning Crescent
Oct 4
New
Oct 11
First Quarter
Oct 18
Full
Oct 26
Last Quarter

Hourly Weather History & Observations

Time (EDT) Temp. Dew Point Humidity Pressure Visibility Wind Dir Wind Speed Gust Speed Precip Events Conditions
12:54 AM 57.0 °F 48.9 °F 74% 30.15 in 10.0 mi SE 8.1 mph - N/A   Clear
1:54 AM 55.0 °F 48.0 °F 77% 30.15 in 10.0 mi SE 8.1 mph - N/A   Partly Cloudy
2:54 AM 54.0 °F 48.0 °F 80% 30.13 in 10.0 mi SE 6.9 mph - N/A   Partly Cloudy
3:54 AM 53.1 °F 46.9 °F 80% 30.11 in 10.0 mi SE 5.8 mph - N/A   Clear
4:54 AM 52.0 °F 46.0 °F 80% 30.10 in 10.0 mi SSE 5.8 mph - N/A   Clear
5:54 AM 52.0 °F 46.0 °F 80% 30.10 in 10.0 mi SSE 6.9 mph - N/A   Partly Cloudy
6:54 AM 51.1 °F 46.0 °F 83% 30.10 in 10.0 mi South 4.6 mph - N/A   Partly Cloudy
7:54 AM 55.9 °F 48.9 °F 77% 30.10 in 10.0 mi SSW 5.8 mph - N/A   Mostly Cloudy
8:54 AM 59.0 °F 48.9 °F 69% 30.10 in 10.0 mi South 3.5 mph - N/A   Scattered Clouds
9:54 AM 63.0 °F 48.9 °F 60% 30.10 in 10.0 mi South 9.2 mph - N/A   Scattered Clouds
10:54 AM 64.9 °F 51.1 °F 61% 30.09 in 10.0 mi SSW 11.5 mph - N/A   Scattered Clouds
11:54 AM 69.1 °F 52.0 °F 54% 30.07 in 10.0 mi South 8.1 mph - N/A   Scattered Clouds
12:54 PM 71.1 °F 53.1 °F 53% 30.06 in 10.0 mi South 8.1 mph - N/A   Scattered Clouds
1:54 PM 73.9 °F 53.1 °F 48% 30.03 in 10.0 mi South 8.1 mph - N/A   Mostly Cloudy
2:54 PM 73.9 °F 53.1 °F 48% 30.02 in 10.0 mi SW 9.2 mph - N/A   Mostly Cloudy
3:54 PM 73.0 °F 54.0 °F 51% 30.00 in 10.0 mi Variable 4.6 mph - N/A   Overcast
4:54 PM 73.0 °F 54.0 °F 51% 29.99 in 10.0 mi SSW 8.1 mph - N/A   Mostly Cloudy
5:54 PM 72.0 °F 54.0 °F 53% 30.00 in 10.0 mi SW 3.5 mph - N/A   Mostly Cloudy
6:54 PM 71.1 °F 54.0 °F 55% 30.00 in 10.0 mi SW 3.5 mph - N/A   Mostly Cloudy
7:54 PM 69.1 °F 54.0 °F 58% 30.00 in 10.0 mi Calm Calm - N/A   Mostly Cloudy
8:54 PM 68.0 °F 55.0 °F 63% 30.02 in 10.0 mi Calm Calm - N/A   Mostly Cloudy
9:54 PM 66.9 °F 55.0 °F 66% 30.02 in 10.0 mi Calm Calm - N/A   Mostly Cloudy
10:54 PM 63.0 °F 55.9 °F 78% 30.01 in 10.0 mi SSE 5.8 mph - N/A   Mostly Cloudy
11:54 PM 62.1 °F 55.0 °F 78% 30.01 in 10.0 mi SSE 5.8 mph - N/A   Mostly Cloudy